Theta_e
317 317 317 316 317 317 317 317 317 318 318 319 319 320 320 320 321 321 321 321 321 321 321 321 322 322 322 322 322 322 320 318 318 318 319 322 330 346 356 356 352 356 364 354 349 342 339 339 339 344 340 336 334 330 336 335 334 330 321 319 315 314 314 317 317 317 317 313 315 318 321 323 322 327 329 333 331 333 334 332 336 339 340 343 344 346 346 347
316 316 316 316 316 316 317 317 317 317 318 319 319 319 319 320 320 320 321 320 320 321 321 321 321 322 321 321 322 322 319 318 317 318 318 329 343 346 353 360 357 357 360 341 344 337 335 334 337 340 337 332 336 328 333 329 335 323 320 318 313 316 320 324 322 321 318 316 317 320 323 324 324 325 327 323 324 327 327 330 334 335 339 343 344 345 345 346
316 316 316 315 316 316 317 317 317 318 318 318 318 319 319 319 320 320 320 320 320 320 320 321 321 321 321 321 321 321 319 318 320 319 324 344 345 347 351 356 357 363 344 334 335 336 332 333 337 337 334 328 328 324 329 325 330 326 320 314 315 321 322 325 325 323 324 322 318 319 320 321 322 321 325 322 322 325 323 327 332 334 335 338 341 343 344 344
316 315 315 315 315 316 316 317 318 318 318 318 318 319 319 319 320 319 320 320 319 320 320 320 321 321 321 321 322 320 318 320 314 319 331 358 352 348 353 356 359 362 343 331 330 334 334 334 336 336 330 325 326 329 325 326 323 326 321 315 318 323 320 323 325 324 325 324 320 320 320 317 318 321 322 321 319 322 325 333 333 333 335 338 340 342 343 343
315 315 315 316 316 316 317 317 317 317 317 318 318 318 318 318 318 318 319 319 320 320 319 320 321 321 321 321 320 320 318 307 312 324 328 355 354 351 351 353 360 353 341 329 327 328 333 331 333 335 330 323 326 326 325 327 328 325 321 322 322 323 319 323 323 325 325 325 323 321 318 316 321 321 321 321 316 317 325 334 336 337 338 339 339 341 343 343
315 315 315 315 316 316 316 316 317 317 317 317 318 318 318 318 318 318 318 319 319 319 319 320 321 321 321 321 319 318 312 295 315 326 359 354 352 349 351 353 359 344 335 328 324 323 326 328 330 329 326 325 324 321 322 324 327 314 322 323 323 322 320 324 324 325 325 325 324 320 323 321 318 315 321 321 319 324 333 337 338 338 339 340 342 342 342 343
315 315 314 315 315 315 316 316 316 316 316 317 317 317 317 317 316 317 317 317 318 318 320 321 321 321 321 321 320 319 315 308 315 324 353 358 354 353 354 359 365 339 330 327 325 323 324 325 327 326 327 325 322 320 321 322 325 320 314 322 323 324 322 324 323 324 323 324 324 326 327 320 319 314 321 319 323 330 337 339 339 340 341 341 340 341 341 342
314 314 315 315 315 315 315 316 316 316 316 316 317 317 317 317 317 317 317 317 318 319 320 320 321 321 323 320 319 313 316 313 319 320 357 357 354 356 354 348 338 335 330 326 325 323 326 324 324 326 321 318 321 320 321 319 320 318 317 320 322 324 324 325 325 324 323 324 326 325 323 321 321 318 323 321 327 336 338 339 339 339 339 340 339 340 341 341
314 314 315 315 315 315 315 316 316 316 316 316 316 316 317 316 316 317 317 317 318 319 320 320 320 322 324 319 312 304 303 314 320 330 352 351 341 349 338 334 331 329 328 327 326 326 327 325 325 325 316 318 322 320 320 316 312 318 319 321 322 322 325 324 325 325 323 323 325 324 322 322 323 323 320 324 329 336 338 338 337 337 338 338 338 339 340 341
314 314 314 314 315 315 315 316 316 315 316 316 316 316 316 316 316 316 317 317 318 319 320 321 322 323 320 319 319 305 313 320 323 332 345 332 333 333 334 333 328 326 325 326 327 327 327 327 325 326 323 320 322 319 321 318 315 320 318 321 320 321 322 325 324 324 323 322 325 322 320 319 323 320 312 324 332 335 337 337 338 337 336 337 338 339 340 341
314 314 314 314 314 315 315 315 315 316 316 316 315 315 315 316 316 316 317 317 317 319 320 321 323 323 319 320 312 302 316 316 328 331 333 331 329 329 327 327 329 325 323 324 326 329 330 329 327 324 321 316 319 318 318 318 321 319 319 318 318 318 320 323 323 322 322 320 325 324 320 322 324 322 315 325 331 335 335 336 336 336 336 337 338 338 339 340
313 314 314 314 314 314 315 315 315 315 315 315 315 315 315 316 315 315 316 317 317 319 320 322 324 321 320 318 314 310 321 321 322 326 328 329 326 327 326 323 327 325 323 320 324 328 330 329 327 322 312 320 312 316 315 320 319 318 318 311 313 315 314 320 320 321 321 319 324 324 319 318 319 317 320 325 332 332 333 333 333 334 334 335 337 337 338 338
313 314 314 314 314 314 314 315 314 315 314 314 314 314 315 315 314 315 316 316 318 319 321 322 324 323 320 313 317 322 321 320 318 320 320 328 328 328 328 326 326 326 324 322 321 325 327 326 324 318 320 316 313 309 318 320 319 319 316 310 310 311 310 319 321 321 319 321 324 322 305 311 318 321 320 322 327 331 330 330 331 332 333 333 334 335 337 337
314 314 314 314 314 314 314 314 314 314 314 314 313 313 313 313 314 315 316 317 319 320 322 324 324 323 319 311 317 319 322 322 322 320 319 322 324 324 325 327 327 326 326 323 322 323 325 324 322 319 320 314 311 319 314 314 316 309 313 311 304 303 303 315 319 320 317 321 322 321 306 310 318 321 321 322 323 328 327 329 329 331 333 332 333 335 335 336
314 314 314 314 314 314 314 314 314 313 313 314 313 312 312 311 314 316 318 319 321 323 324 326 324 321 317 316 326 327 345 331 320 319 321 320 319 320 321 322 322 324 326 325 324 324 324 323 321 315 310 316 314 311 307 307 308 309 305 301 305 303 305 313 318 317 314 319 322 318 308 310 317 319 322 323 323 328 326 327 328 329 331 331 332 334 334 335
313 313 314 314 314 314 314 313 313 313 313 312 311 311 313 313 315 317 319 320 323 325 326 323 321 321 318 312 322 345 334 326 324 326 325 323 321 319 321 320 320 320 320 320 324 324 323 322 315 313 312 312 309 304 303 302 303 306 304 303 302 304 305 309 314 317 317 318 320 317 307 314 316 323 323 323 322 326 324 325 326 328 330 330 330 334 333 333
313 313 313 314 314 314 314 313 312 313 312 311 311 311 312 315 318 320 322 323 323 325 324 320 325 323 309 322 331 319 318 325 328 326 324 323 322 320 320 318 317 317 319 320 320 320 320 317 318 314 313 306 306 306 299 298 298 301 304 302 306 305 306 305 313 317 317 317 314 317 311 316 318 320 323 324 323 321 322 323 325 327 329 329 329 332 332 332
313 313 313 313 314 314 314 312 312 312 311 310 310 310 310 316 320 319 321 319 319 324 324 326 320 314 311 322 315 317 320 320 322 322 321 322 322 320 319 316 316 315 316 315 318 314 316 312 314 306 307 307 306 303 299 296 299 300 300 301 303 306 307 307 307 314 317 318 315 314 313 316 318 321 322 324 324 321 320 322 324 325 327 328 328 331 332 332
314 313 313 313 313 313 313 312 312 311 310 310 311 314 318 320 320 318 319 318 319 317 310 313 312 299 300 315 323 324 324 322 323 322 319 321 321 321 320 319 316 314 311 310 310 312 313 310 310 304 302 303 304 304 302 304 306 305 305 304 304 303 304 307 312 317 316 314 313 313 310 313 317 318 320 324 325 322 320 322 323 324 326 327 326 330 332 332
314 314 313 313 313 313 313 312 311 310 309 307 306 308 318 314 313 320 318 320 317 316 317 319 317 313 311 313 315 321 326 327 318 319 321 322 320 317 316 316 315 315 311 305 308 310 313 304 301 302 303 306 307 307 307 308 309 309 308 306 305 306 307 311 313 317 318 313 312 313 313 313 316 318 319 324 324 322 321 321 321 323 325 326 326 328 331 332
313 313 313 313 313 312 312 312 311 310 309 307 306 309 307 305 299 298 303 305 308 312 312 312 315 317 314 318 321 322 318 317 319 318 320 324 320 315 312 314 311 307 308 310 308 312 311 302 302 305 307 307 308 309 308 307 308 308 306 306 305 306 305 311 311 317 318 313 309 314 313 313 316 318 318 323 323 321 322 321 321 321 325 326 326 328 331 333
313 313 313 313 312 312 312 311 310 309 309 308 308 310 313 309 309 310 306 299 305 308 307 307 309 307 313 318 322 323 321 315 314 317 321 320 317 309 309 310 308 305 309 309 308 305 303 301 304 307 309 309 308 308 308 307 306 307 305 305 304 305 308 311 314 317 317 315 309 313 312 313 316 318 318 320 321 322 324 324 323 322 323 324 326 327 331 333
313 313 313 312 312 311 311 310 309 308 307 313 307 306 305 310 314 313 309 303 300 306 305 305 304 305 306 310 312 316 310 309 309 315 318 319 314 312 309 306 305 307 309 308 303 301 298 302 306 309 309 307 307 307 307 307 307 305 305 303 302 306 304 302 310 314 316 314 310 313 312 312 316 318 319 321 322 322 324 326 326 325 323 324 325 326 329 332
312 312 312 312 312 311 311 309 308 310 308 307 306 306 309 313 312 312 305 297 297 303 306 307 306 305 305 305 310 309 308 309 312 312 321 317 311 313 309 308 305 306 305 307 306 303 301 306 309 309 308 307 305 306 305 304 303 306 306 305 304 305 307 307 307 312 315 315 316 313 311 309 313 314 316 320 322 322 323 325 326 327 326 327 328 328 329 331
312 312 312 312 310 311 308 307 308 305 307 308 308 313 314 313 312 312 303 299 300 301 310 308 309 308 309 314 313 307 308 310 312 316 319 317 313 310 307 311 308 304 306 308 307 305 304 309 310 308 307 306 305 304 305 304 301 304 307 307 307 308 307 308 310 309 310 309 313 311 302 303 310 314 316 318 320 320 322 320 322 324 326 326 326 327 329 331
312 313 313 311 312 310 308 303 305 306 306 307 309 312 314 314 314 312 303 295 292 303 309 301 311 305 315 307 310 309 310 304 312 315 318 319 320 313 310 306 308 303 306 306 306 306 306 310 309 307 306 305 305 304 305 305 301 300 303 310 309 308 308 308 307 308 304 303 309 314 302 298 309 310 314 317 318 318 321 321 321 323 325 326 326 328 329 329
313 312 312 311 311 309 302 298 305 307 304 305 311 314 314 315 315 311 299 294 292 306 304 310 308 308 313 310 309 310 295 300 313 315 314 320 315 318 307 304 307 309 311 310 304 302 309 308 307 307 305 304 303 301 305 305 301 299 307 309 309 308 307 307 307 307 307 313 313 313 308 301 301 309 314 317 317 318 319 321 322 324 324 326 327 328 329 330
313 312 311 311 310 309 303 305 305 304 306 310 313 313 313 315 314 309 298 290 293 313 303 305 310 315 312 310 311 305 306 310 304 309 315 316 318 312 308 305 305 306 309 307 297 305 308 307 307 305 305 303 301 304 306 306 303 302 307 309 308 309 309 308 307 305 305 306 303 309 311 302 301 308 315 315 314 316 317 319 321 323 325 325 326 328 329 330
312 312 312 311 310 308 308 306 306 305 310 312 312 312 314 314 308 299 294 288 305 305 316 306 318 312 310 310 307 307 307 310 304 309 314 315 316 312 304 306 308 307 309 308 302 305 309 308 309 309 306 302 305 306 307 306 302 306 308 310 309 310 310 309 306 305 304 302 299 306 310 301 300 308 311 314 313 314 317 319 322 323 325 325 325 326 329 330
312 311 311 310 308 307 306 306 303 307 309 310 310 313 311 308 302 293 290 285 306 299 308 309 308 305 308 304 304 306 304 307 310 311 311 309 310 312 310 313 308 306 305 308 306 307 309 314 314 310 307 308 306 307 308 307 307 308 308 306 306 306 306 307 307 303 302 296 298 308 310 307 298 306 309 310 312 315 317 320 322 324 326 326 326 327 328 330
311 310 310 310 304 306 305 301 305 310 311 311 314 313 306 303 294 290 286 296 306 305 313 306 305 310 305 303 300 305 305 306 307 308 305 309 307 308 308 305 310 304 303 304 304 307 308 309 308 310 313 312 310 307 309 309 308 307 303 302 301 300 303 301 304 303 296 294 301 307 309 309 299 302 311 315 318 319 318 318 321 323 325 326 327 327 328 329
309 308 309 307 307 309 302 301 307 310 309 312 312 308 300 290 294 286 290 308 295 302 305 304 308 307 305 306 304 303 302 305 307 306 303 303 302 301 302 299 301 295 295 297 298 305 304 305 308 310 315 311 308 305 304 307 307 304 301 300 295 292 295 292 296 293 293 294 301 306 306 302 304 308 313 316 318 319 320 321 322 324 325 327 328 328 328 330
308 307 308 308 310 308 308 309 310 311 312 312 310 305 294 289 284 290 292 300 298 309 304 311 307 307 307 304 303 305 306 301 307 306 307 305 302 302 305 304 305 301 293 299 298 299 301 307 308 308 309 313 310 301 299 299 303 302 299 297 293 290 290 287 290 295 295 301 305 305 307 301 305 308 316 316 319 321 321 322 323 325 325 326 328 329 329 330
307 307 306 309 310 311 312 314 313 313 312 312 305 299 293 286 286 302 294 296 298 305 306 305 306 307 308 302 304 307 301 306 306 305 306 303 302 299 302 304 306 304 302 300 297 298 293 295 303 306 302 310 310 307 304 301 301 302 304 301 297 295 294 289 291 289 292 293 301 307 302 296 299 299 316 318 320 322 323 324 323 324 326 327 329 331 330 330
307 307 309 310 311 313 314 315 314 315 312 307 301 294 286 285 292 293 295 298 301 303 301 306 303 303 303 306 308 308 307 302 307 305 304 304 300 301 300 301 305 306 304 297 300 299 299 298 305 310 309 309 308 311 311 307 302 302 304 303 298 297 300 293 296 295 297 297 296 299 300 303 302 314 318 320 321 321 323 323 324 323 324 327 328 329 329 329
306 307 309 307 309 313 315 315 316 315 309 303 296 290 287 291 290 296 296 304 304 301 301 301 302 300 300 301 307 307 310 305 305 304 303 305 306 303 306 306 305 306 303 298 301 296 299 297 307 309 311 309 308 311 310 310 296 300 301 297 300 304 303 299 302 303 303 298 295 306 304 306 309 312 312 316 317 318 320 321 322 322 323 325 326 327 328 329
304 306 304 308 310 314 315 316 316 314 308 301 294 289 294 295 297 297 302 300 300 300 298 293 295 298 298 298 301 305 306 308 306 303 299 306 303 307 306 307 310 308 308 304 300 305 296 297 306 306 305 309 311 311 311 311 309 301 298 301 307 308 306 300 293 296 294 290 295 301 298 298 302 297 310 312 314 316 317 318 321 321 322 323 326 327 328 329
304 304 306 307 311 316 317 318 315 312 306 299 292 296 300 294 300 299 302 301 301 301 295 293 295 299 296 299 299 303 306 303 303 304 300 304 300 310 307 307 310 309 309 310 302 302 303 295 302 307 308 309 311 310 308 310 311 304 300 308 299 294 295 299 301 290 290 291 292 297 300 301 301 303 308 308 312 313 315 317 318 319 322 324 326 327 328 330
304 304 299 306 311 313 318 316 313 309 302 295 293 292 298 298 302 300 302 301 301 299 294 296 294 298 297 295 298 304 305 300 304 303 299 302 299 308 308 309 307 311 310 309 304 304 305 296 298 307 307 309 309 306 299 302 307 309 308 304 306 302 297 295 297 298 297 291 293 293 298 294 305 304 309 310 313 314 315 316 317 319 322 324 326 327 328 329
300 297 295 306 310 311 312 314 309 305 300 293 295 295 301 298 301 303 303 302 299 298 297 296 299 295 297 297 299 297 302 304 304 303 303 304 303 310 308 311 308 309 310 310 306 307 301 303 292 300 308 308 301 304 301 302 300 301 301 300 301 301 303 301 301 298 293 292 290 291 290 297 304 310 310 311 313 315 316 317 318 319 322 323 324 326 328 328
302 296 297 308 310 309 308 303 302 298 296 298 299 297 299 298 302 303 305 306 303 305 300 298 298 295 296 296 296 299 297 299 302 303 304 304 304 300 309 310 311 309 310 309 306 306 300 300 296 298 300 300 303 308 307 306 305 303 301 300 300 298 294 292 292 301 299 294 289 291 291 301 307 314 316 312 314 316 317 318 318 319 321 322 323 324 327 328
297 290 295 307 308 307 301 294 295 301 298 295 294 298 297 304 299 300 301 303 302 300 305 301 302 300 299 297 298 298 298 296 298 300 305 303 307 306 308 313 311 312 308 304 304 308 306 306 299 296 299 300 305 310 311 310 309 307 305 302 303 300 298 294 285 292 298 299 301 299 295 296 309 312 313 315 318 318 318 320 319 320 320 322 323 325 327 328
295 292 303 306 307 305 298 292 295 295 295 298 302 301 302 300 299 301 299 300 298 301 300 300 300 299 301 300 300 298 299 296 298 296 299 305 307 309 311 310 312 311 311 307 308 308 321 301 297 298 302 305 308 310 310 311 309 306 305 306 303 300 300 297 295 299 297 298 294 294 294 297 309 313 315 318 316 317 320 321 320 320 320 321 322 322 326 327
296 295 297 305 307 304 295 288 289 292 294 298 297 296 299 297 297 296 297 299 298 298 298 298 300 303 300 303 301 298 301 294 299 298 299 303 302 309 311 311 311 309 309 307 304 309 302 302 299 293 293 295 301 304 304 308 308 304 303 304 305 304 303 302 301 305 297 298 298 293 291 295 309 313 312 315 318 317 317 320 321 319 319 320 321 320 327 328
296 298 298 301 306 302 293 295 292 291 293 292 292 291 294 296 298 298 297 296 300 299 298 297 299 301 301 303 301 302 302 299 295 300 300 300 301 307 306 309 312 309 311 315 326 311 305 302 299 292 290 288 289 291 293 297 301 304 305 304 305 304 302 299 295 295 289 298 300 296 295 301 309 311 312 312 312 314 319 315 321 321 320 320 320 320 328 328
292 286 293 295 300 299 298 300 296 293 291 291 291 293 295 294 298 300 299 298 301 301 300 300 300 300 298 298 296 296 297 303 298 297 298 298 301 303 306 306 306 309 321 332 327 312 304 305 302 299 296 294 297 300 311 308 302 300 303 304 304 305 305 302 299 294 290 295 299 297 300 302 307 307 309 311 311 311 314 316 319 319 321 323 326 323 328 328
297 289 290 288 295 295 293 296 294 295 291 295 288 293 291 292 294 296 301 295 300 299 298 298 298 296 295 296 293 295 299 298 300 298 298 298 301 302 304 302 305 309 322 326 328 313 305 301 303 302 301 302 306 306 307 308 304 304 303 303 305 304 303 302 297 295 299 297 289 298 306 302 303 305 308 310 310 311 316 314 314 319 325 330 332 329 334 328
288 293 295 297 289 286 289 291 294 292 294 294 290 294 291 291 292 291 296 299 299 300 295 296 296 296 295 293 294 292 295 295 297 294 298 298 297 300 299 305 305 312 315 313 318 310 308 301 304 304 302 303 305 305 307 307 306 305 305 304 303 304 303 301 300 301 302 296 294 298 305 309 308 307 309 311 313 312 313 317 316 316 322 330 332 328 327 328
295 294 294 298 290 292 292 293 294 293 292 293 291 292 291 291 290 293 294 293 295 295 297 290 293 295 295 295 294 292 294 290 291 295 295 294 295 296 296 299 303 306 305 303 310 312 307 302 307 304 303 303 304 304 305 304 305 305 304 305 305 304 304 303 302 303 302 301 302 302 304 306 310 308 309 310 317 320 321 324 320 317 318 330 330 327 327 328
291 291 290 296 295 292 293 293 293 292 289 294 289 290 291 291 290 293 295 293 290 292 297 293 293 295 295 295 295 291 292 294 294 291 295 295 295 297 296 297 298 303 302 301 304 311 306 304 308 305 302 301 304 305 305 304 303 302 305 305 305 305 304 304 304 303 304 302 303 303 302 302 308 309 310 312 312 315 318 317 318 322 325 330 327 326 329 336
297 299 297 291 289 291 293 293 291 290 289 291 289 290 292 291 290 294 293 296 293 291 293 292 294 294 295 294 294 293 296 295 295 294 295 296 292 298 296 297 302 297 302 302 303 307 307 303 306 305 299 300 305 304 304 304 304 303 302 304 304 303 301 302 302 304 302 301 303 305 300 300 305 310 311 311 310 316 315 315 318 320 322 325 325 326 329 333
302 304 301 295 287 293 290 292 291 290 286 291 291 291 291 291 293 293 290 295 296 296 296 295 295 294 293 293 292 294 297 297 297 297 298 299 301 301 302 302 302 300 300 301 304 302 304 303 299 298 296 297 303 305 304 304 302 299 300 303 305 306 304 305 305 306 305 304 301 298 298 303 306 313 309 307 309 308 311 314 315 315 321 321 319 322 327 330
Wind_Speed
21 22 22 22 22 23 23 22 21 21 21 21 21 21 22 22 22 22 22 22 21 21 21 21 20 21 20 21 20 19 18 9 11 6 9 17 11 12 8 8 16 15 12 6 8 9 10 11 12 13 9 7 6 7 6 9 5 3 3 1 5 5 7 4 7 2 7 8 6 5 9 9 11 11 11 13 14 14 13 11 13 16 12 18 17 18 19 18
21 22 22 22 22 22 22 22 21 21 21 21 21 22 22 22 22 22 22 23 22 22 21 20 22 20 21 20 19 18 14 8 9 12 18 21 17 20 13 9 15 17 11 7 10 12 11 12 13 12 10 8 6 7 7 6 8 5 2 3 7 2 6 6 7 7 3 8 8 9 10 8 11 7 9 8 12 15 12 15 16 16 18 18 19 19 18 19
22 21 22 22 22 21 22 22 21 21 22 22 22 22 22 22 22 22 23 23 23 22 22 21 21 21 20 20 17 16 10 6 8 14 21 21 22 19 18 12 15 17 14 10 10 12 14 13 12 13 9 7 6 9 10 7 11 7 4 6 8 6 8 10 10 12 4 2 9 10 9 8 9 5 6 11 11 12 12 13 15 17 20 20 20 19 19 18
23 22 21 21 20 21 21 22 22 22 22 22 22 22 23 22 22 23 23 23 23 23 22 21 20 20 20 19 15 13 6 7 6 8 3 5 15 20 16 17 16 17 11 10 9 12 12 11 12 13 8 8 7 10 9 8 7 7 8 6 7 11 6 10 9 8 5 5 6 4 9 11 10 6 6 14 11 10 13 18 19 20 21 20 20 20 18 17
22 22 21 21 22 22 22 22 23 23 22 22 22 22 22 23 23 23 23 22 22 23 22 21 21 20 19 15 13 7 6 4 3 2 2 9 13 17 17 17 17 13 13 9 8 11 13 14 13 12 8 7 10 9 12 13 10 7 12 12 15 11 5 6 8 10 6 7 6 5 5 8 9 8 9 15 11 9 13 19 20 21 21 22 21 20 18 18
23 23 22 21 22 23 23 23 23 24 23 22 23 22 23 23 23 23 22 22 23 22 21 20 19 20 19 15 9 6 1 3 1 1 3 5 15 17 18 17 16 11 8 7 9 11 13 14 14 11 8 8 10 11 10 13 11 9 8 13 15 4 4 2 7 10 5 6 4 7 2 9 7 5 10 12 14 12 20 24 23 21 21 20 20 19 19 20
24 23 22 23 23 24 24 24 24 24 23 23 23 23 22 22 23 23 23 22 22 21 21 20 19 19 17 16 5 4 4 10 10 4 7 6 8 11 10 10 12 7 8 8 10 9 12 14 14 12 11 12 14 13 12 9 11 9 7 11 14 10 9 7 11 6 6 8 8 2 5 5 4 3 5 10 9 17 23 23 23 22 19 19 19 18 19 19
22 22 23 24 24 25 25 25 25 25 24 24 23 23 22 23 23 23 22 23 22 21 20 19 18 17 14 8 3 3 5 9 17 15 11 9 7 8 10 6 10 9 9 12 11 13 11 14 14 10 10 9 8 11 10 15 12 12 13 9 10 10 9 12 9 8 8 10 7 6 9 4 6 6 1 7 17 24 22 21 21 21 20 18 18 18 18 17
23 23 24 25 25 25 26 25 25 25 25 25 24 24 24 23 23 23 23 22 22 21 20 18 18 13 10 3 2 6 9 15 17 9 14 10 9 9 11 7 8 11 9 10 11 11 10 10 12 11 8 12 11 12 13 11 7 11 15 14 9 11 14 10 10 12 4 3 9 11 6 4 1 7 4 15 19 24 22 21 20 19 20 18 17 17 17 15
24 24 25 25 26 26 26 27 27 27 27 26 26 26 25 24 22 21 22 22 22 22 19 16 14 10 6 3 4 4 10 7 8 13 12 12 10 8 8 7 12 8 8 10 9 12 13 9 12 9 12 11 9 13 13 12 9 9 9 19 14 13 11 14 12 11 10 6 13 9 7 9 7 5 2 11 21 22 23 20 19 18 19 18 16 15 15 17
25 25 25 25 26 26 26 27 28 28 28 28 29 28 26 25 22 21 22 22 22 21 18 15 11 7 4 4 3 9 7 7 3 8 11 12 13 9 11 8 12 8 9 8 11 12 12 13 9 7 8 7 5 12 11 10 10 14 17 8 10 7 10 10 13 12 9 7 14 11 9 11 9 5 2 15 19 23 24 22 18 17 14 15 16 15 12 15
26 25 25 25 26 26 26 27 27 28 28 30 30 29 28 27 24 22 22 21 22 21 16 10 6 4 5 4 8 12 5 5 2 2 8 12 12 13 11 9 11 8 9 8 11 10 12 12 12 8 4 6 11 9 11 13 13 12 12 10 10 13 9 12 12 13 10 7 15 12 10 11 10 10 6 17 19 21 22 21 19 17 14 14 14 13 12 14
26 25 27 26 26 27 27 27 27 28 28 28 29 28 29 29 27 25 22 21 17 16 12 10 6 4 4 7 13 19 17 16 17 12 8 10 11 12 9 9 11 11 10 9 8 11 11 12 11 10 11 7 3 6 3 8 12 12 11 5 8 10 10 15 12 12 13 9 18 13 5 8 11 9 13 13 18 19 20 18 17 15 15 14 13 12 13 11
27 26 27 27 27 27 28 27 28 28 28 28 28 27 28 28 29 26 22 19 20 16 11 7 4 4 4 9 5 6 13 14 18 17 16 12 10 9 8 7 8 11 9 9 9 6 11 10 10 10 6 8 6 4 12 9 6 7 8 4 7 4 5 6 10 11 14 10 17 14 6 6 12 12 15 13 14 20 18 16 16 15 15 14 12 14 13 13
26 27 29 28 29 28 28 28 28 28 29 28 28 28 28 29 28 26 21 15 12 10 6 5 4 3 4 10 9 22 28 16 14 16 11 13 11 7 10 8 9 7 8 11 7 7 7 7 9 8 6 5 8 9 9 6 5 6 7 7 5 2 5 12 6 6 11 10 15 13 4 7 11 9 15 13 12 20 19 16 17 16 14 15 11 15 14 12
25 27 28 28 28 29 28 29 29 29 29 29 31 32 31 28 24 22 19 13 10 3 5 3 6 6 6 11 8 9 6 8 16 19 14 14 13 11 9 10 8 9 8 5 5 5 6 7 8 6 6 6 9 5 5 4 6 7 9 4 5 5 8 9 11 10 10 7 15 12 4 8 6 2 12 15 15 18 17 17 17 16 17 16 11 13 13 11
24 26 28 29 28 28 29 28 29 29 30 31 32 33 31 25 20 16 11 7 5 6 6 2 5 6 4 3 11 10 6 11 7 9 12 14 11 6 8 7 8 11 10 9 7 7 7 8 3 5 6 7 6 5 5 7 6 8 4 7 8 9 8 11 5 12 13 11 10 10 5 6 3 8 4 15 15 14 15 17 18 16 14 14 12 14 13 12
24 25 27 28 30 29 28 29 29 29 30 32 31 28 26 26 17 3 4 3 4 5 7 7 5 3 13 10 6 12 12 9 9 8 12 10 11 10 7 7 7 11 10 9 9 10 7 7 4 6 4 9 8 9 9 10 10 8 6 6 9 12 11 7 5 8 6 11 11 10 7 8 10 10 9 15 16 13 13 16 17 16 16 15 13 13 15 13
24 25 26 29 28 28 28 30 31 30 29 31 29 26 22 7 1 3 3 4 4 2 1 5 6 7 4 4 12 8 5 7 6 11 10 11 12 10 8 8 8 10 9 8 5 11 6 6 4 6 11 10 12 11 11 10 10 14 12 9 9 9 7 10 8 8 8 10 10 13 9 8 11 12 8 17 15 14 11 14 14 14 16 16 15 14 15 13
25 24 27 28 30 29 28 29 32 31 27 21 17 14 4 2 0 2 3 5 6 8 12 7 12 9 12 17 14 12 10 11 8 10 5 8 9 9 10 10 9 9 8 9 7 13 4 9 10 13 10 9 11 13 11 11 13 13 13 14 10 9 9 12 13 12 13 6 8 11 10 10 9 11 7 18 14 14 12 15 12 14 15 16 14 15 16 16
26 28 28 28 29 30 27 30 32 31 28 14 10 5 6 10 7 6 10 11 13 15 17 19 17 16 17 13 15 15 11 2 10 8 9 9 7 9 9 7 8 9 9 8 9 7 10 10 13 12 11 12 10 11 14 14 13 15 13 12 11 9 9 11 7 17 14 9 8 10 11 10 8 10 5 15 15 15 15 15 14 14 16 16 16 15 17 15
26 27 27 28 30 31 31 31 33 32 28 6 2 3 8 5 1 5 6 12 8 11 14 19 17 19 15 20 21 16 12 12 8 7 7 13 9 10 8 9 8 9 9 9 9 7 12 14 10 12 11 12 13 12 15 17 14 13 12 11 11 11 10 13 11 15 13 11 7 13 11 8 9 12 6 12 14 12 14 15 15 15 16 15 16 15 15 14
27 26 26 28 30 33 32 33 31 34 7 3 6 10 8 10 7 5 6 10 20 12 20 21 19 21 19 15 17 11 14 15 10 10 9 10 8 12 10 12 9 8 9 13 11 9 10 12 13 11 12 13 14 15 12 14 14 10 11 11 11 9 7 7 9 4 12 9 8 11 10 7 8 9 9 7 14 11 14 17 16 17 16 17 18 16 15 17
28 27 26 26 28 31 34 33 33 13 5 12 13 12 10 8 9 9 8 6 12 14 16 18 20 20 20 17 8 16 14 10 10 12 10 11 10 11 8 12 11 10 11 14 15 12 11 4 14 13 12 14 14 13 14 10 11 15 15 12 11 11 12 13 5 7 7 10 15 11 8 4 8 9 8 6 6 10 14 15 15 16 16 17 17 17 16 18
26 25 27 26 26 30 33 34 8 8 14 14 6 12 13 12 8 9 8 6 6 10 11 17 11 12 18 10 6 12 13 11 14 9 8 13 12 6 10 5 6 11 12 12 14 15 14 12 11 18 15 14 14 13 16 12 10 11 18 18 13 11 14 13 12 14 4 3 6 7 4 5 7 12 13 11 9 7 6 13 14 14 15 15 16 17 16 17
27 27 27 24 26 26 33 12 5 13 16 8 8 14 13 13 10 10 5 3 8 7 9 8 10 10 9 12 13 10 5 12 16 13 10 13 11 9 4 8 5 10 14 13 12 7 10 11 13 14 18 16 17 14 13 15 12 10 11 16 19 18 16 13 12 12 5 7 6 6 7 3 5 9 11 10 11 13 6 7 9 11 14 15 15 16 17 17
27 28 25 24 22 22 13 5 10 16 11 7 13 14 14 13 7 12 3 4 6 8 7 5 8 0 7 13 15 12 7 15 11 12 15 11 15 9 9 8 6 7 7 6 4 10 9 15 16 16 13 17 14 15 12 14 12 12 6 12 17 19 21 19 17 13 3 5 15 18 10 6 4 8 9 12 17 15 13 11 9 10 13 16 14 16 16 17
26 26 25 24 23 16 9 9 13 9 11 13 12 14 14 10 10 7 3 4 3 2 6 4 4 2 3 13 17 16 8 9 10 16 18 10 11 12 13 10 11 11 9 7 13 6 9 12 16 17 16 12 14 10 10 14 12 8 11 12 14 19 18 18 15 11 6 4 5 11 12 4 5 5 8 11 13 14 14 14 13 10 13 15 15 16 17 18
24 24 25 25 24 23 14 6 7 11 8 9 14 14 10 10 8 2 2 4 5 3 3 7 2 2 2 17 16 15 10 5 7 12 16 14 14 5 12 15 9 10 12 12 10 6 9 12 12 18 12 12 7 12 13 14 14 10 11 12 12 10 15 16 12 12 9 9 6 10 12 6 4 6 9 8 9 13 15 16 15 11 10 14 15 13 16 16
23 23 25 22 20 8 5 8 13 20 14 14 14 12 13 9 3 1 2 6 5 2 3 3 2 6 6 15 12 16 14 8 8 8 16 14 14 14 6 10 11 9 10 14 15 12 9 9 13 10 14 10 7 10 15 16 14 6 11 13 12 12 9 8 11 6 5 7 7 9 15 11 5 8 11 10 12 12 12 12 12 14 12 12 15 16 13 15
24 25 22 20 9 7 9 9 13 10 6 9 13 13 9 3 3 3 8 3 5 3 2 3 6 8 10 14 11 15 15 11 11 5 10 13 13 15 8 8 9 8 8 9 12 15 15 14 8 7 10 9 11 9 11 12 11 12 7 9 8 9 8 7 3 7 9 9 4 7 12 15 10 5 10 12 10 14 12 14 17 18 17 14 13 15 15 14
26 27 28 15 13 8 6 9 8 9 11 13 13 8 4 2 3 8 5 2 7 6 12 7 10 10 15 14 11 14 14 14 9 8 10 11 11 14 16 11 10 10 11 10 11 9 15 15 11 11 7 12 10 12 8 13 12 11 7 5 10 6 4 7 5 6 8 10 4 7 8 7 11 6 12 14 12 15 16 14 18 20 20 18 15 15 14 14
28 28 34 19 12 7 15 17 13 11 11 13 8 5 3 3 9 11 7 4 3 1 2 5 9 11 10 12 11 11 13 12 11 12 11 14 12 13 16 16 10 12 7 9 9 8 9 12 15 13 10 11 12 10 6 6 11 11 10 7 6 7 7 6 5 4 3 3 8 9 8 12 3 4 17 18 17 17 16 15 14 20 20 19 16 14 13 13
29 30 15 11 9 13 12 10 11 9 9 8 5 4 4 7 8 9 13 10 13 18 14 9 10 8 11 11 11 10 11 12 11 12 13 10 15 11 15 19 15 12 8 5 11 9 7 10 15 13 10 8 15 12 6 5 8 13 10 10 8 6 5 8 5 7 7 5 6 16 13 4 11 5 16 15 17 17 16 16 14 15 19 18 17 17 19 18
31 26 14 14 9 12 13 14 13 11 8 6 4 7 8 15 2 2 5 9 8 15 20 21 15 14 10 13 12 14 10 8 15 12 13 13 13 12 13 15 20 13 9 10 7 6 16 9 5 17 8 8 14 13 8 7 7 7 7 5 9 15 5 6 4 5 3 3 7 6 6 5 6 7 12 17 19 17 16 15 16 15 14 20 21 22 19 16
21 12 17 10 9 11 11 9 11 11 8 6 6 8 15 4 4 4 5 6 9 7 13 20 18 12 11 8 10 15 17 10 16 14 11 15 12 14 13 10 17 21 12 12 4 8 7 11 8 14 20 15 8 12 12 10 9 6 6 14 16 5 7 3 6 3 3 7 8 0 4 6 3 1 4 10 13 15 15 16 17 17 15 15 17 17 17 15
11 15 12 13 13 15 12 11 6 10 7 8 8 13 6 8 12 13 7 11 14 18 14 10 8 7 6 8 7 14 12 14 12 13 10 12 14 15 15 14 15 20 21 8 8 7 5 5 11 10 18 19 15 10 15 16 9 4 13 11 1 2 1 4 4 3 7 5 4 7 7 3 9 7 4 6 15 16 15 13 15 16 15 17 17 17 17 16
12 10 16 18 18 15 10 8 9 8 7 8 13 15 6 12 6 13 13 18 15 14 11 8 8 11 10 10 9 10 12 13 11 12 11 12 8 15 15 12 17 17 22 20 8 6 8 8 7 16 14 16 17 13 13 15 15 11 3 6 7 5 11 4 2 5 6 10 4 3 6 9 7 5 8 9 14 15 15 15 15 11 13 15 17 20 20 17
9 9 10 14 8 18 2 6 10 9 8 9 10 10 8 14 15 18 17 17 17 16 12 9 6 8 12 13 13 11 11 12 11 12 10 9 12 15 20 12 13 18 20 22 16 6 5 8 6 6 14 13 15 11 13 10 9 12 9 8 7 6 7 9 6 3 2 3 5 7 10 5 7 5 8 12 15 16 17 16 15 13 15 14 14 15 17 17
9 7 8 9 10 18 18 10 4 6 8 15 10 11 7 13 11 12 14 14 13 9 9 12 11 12 15 14 15 11 12 15 12 12 13 6 14 12 18 19 11 16 18 23 16 13 9 4 5 5 9 11 12 10 11 10 13 11 11 13 7 4 2 7 6 9 6 4 3 2 6 5 5 5 9 6 8 12 15 17 19 15 16 19 18 18 17 17
8 6 9 11 10 18 18 12 8 9 11 11 14 14 14 12 11 13 16 17 14 12 15 16 13 12 11 14 17 14 10 16 13 11 11 11 12 8 15 13 16 14 17 19 20 13 9 8 8 4 8 9 9 11 15 15 14 12 13 14 13 10 6 8 9 8 11 6 5 6 9 2 5 7 4 8 9 13 14 15 16 16 17 17 18 18 19 19
9 8 10 18 21 17 13 9 5 6 8 12 11 10 11 11 14 17 17 17 20 15 13 14 17 15 14 15 14 16 11 13 15 16 8 11 12 12 5 19 16 19 12 14 15 14 8 3 6 9 10 9 7 12 18 18 15 14 13 13 14 6 5 5 5 5 7 9 6 5 5 7 6 4 10 12 7 11 12 14 14 14 15 16 17 17 22 23
7 11 16 22 22 16 10 8 8 8 10 11 14 18 18 17 15 13 17 16 15 12 12 14 14 15 15 13 15 15 15 13 15 13 15 12 12 14 9 12 16 19 20 8 15 14 13 7 7 10 6 12 15 8 18 20 18 15 13 14 11 13 10 7 4 2 2 2 6 4 9 5 5 10 5 6 7 5 12 18 18 17 15 16 14 11 15 17
9 12 15 14 13 10 7 7 6 8 9 13 16 17 15 17 17 15 13 13 11 10 13 12 15 16 17 16 14 17 14 11 12 14 14 12 8 10 12 21 13 12 15 8 9 13 9 9 6 4 6 5 10 8 7 17 15 11 9 12 15 13 12 10 7 2 7 9 7 5 10 4 5 6 11 7 2 5 9 15 17 13 12 13 13 11 17 19
9 10 12 11 11 7 9 7 9 9 12 14 15 17 14 12 11 17 16 16 13 13 11 11 15 17 16 14 17 17 18 15 14 17 15 16 13 14 17 12 23 16 12 14 16 11 15 8 12 9 12 13 12 13 10 12 16 9 9 11 16 18 15 10 10 7 5 5 13 8 4 4 5 15 19 19 14 6 2 5 8 16 16 16 14 13 15 20
6 9 7 8 8 8 8 8 11 12 12 11 12 13 13 11 11 14 15 15 13 13 12 11 8 16 14 18 14 13 14 16 15 13 9 10 10 7 11 25 18 12 17 15 18 11 7 9 14 15 12 10 10 4 1 2 7 14 16 15 12 16 17 12 6 6 10 4 6 7 9 4 2 9 17 18 15 7 6 3 7 4 3 7 7 4 12 20
5 6 7 8 10 6 7 10 10 9 9 10 6 8 15 15 13 15 12 9 11 13 13 10 10 12 14 15 15 15 13 20 16 17 15 14 16 15 24 11 22 21 23 22 9 11 5 9 14 18 18 11 5 7 8 9 8 13 15 19 16 12 13 16 12 13 6 2 7 4 4 9 10 7 7 11 11 10 5 7 4 7 8 7 4 5 13 14
4 5 9 5 5 10 14 10 12 13 14 13 10 11 14 14 13 11 13 10 10 9 8 8 9 13 14 14 15 12 17 14 9 15 20 15 22 22 22 14 9 18 26 18 9 10 5 5 11 16 18 20 17 10 10 15 15 9 16 14 18 19 15 14 13 12 7 7 13 8 3 4 5 12 12 7 6 9 13 8 8 7 9 7 7 6 10 16
7 8 9 10 9 9 11 15 19 16 16 12 8 11 14 15 14 11 8 13 12 9 7 10 13 10 12 14 13 9 10 12 11 15 11 20 19 19 14 26 15 16 16 19 14 3 3 4 3 11 14 16 18 20 19 16 11 10 11 17 14 17 22 20 12 9 11 6 8 11 8 10 7 5 9 5 4 3 1 1 1 5 3 9 9 7 6 7
6 4 4 5 5 10 13 12 12 12 12 11 8 7 11 13 17 14 12 8 11 11 5 13 16 13 14 15 11 8 12 14 14 16 17 17 20 6 13 9 13 16 14 17 15 6 10 3 9 3 5 14 20 17 18 20 16 15 12 11 18 18 18 19 17 13 9 10 11 7 8 12 7 4 6 7 3 3 1 1 2 5 1 16 12 13 12 11
5 5 2 6 9 6 7 7 9 10 11 9 8 8 8 11 14 15 16 13 13 13 6 8 11 14 11 11 11 13 13 15 16 16 18 16 14 15 10 8 12 20 20 16 11 13 7 3 3 2 3 3 4 15 22 19 18 18 19 16 13 18 13 13 16 14 12 10 5 5 7 9 6 5 4 11 5 1 2 3 2 2 1 2 11 16 16 11
6 1 2 3 5 8 9 10 9 9 9 8 7 10 11 12 14 16 15 9 10 11 11 11 8 8 8 10 10 14 13 16 17 16 15 15 16 18 17 19 15 16 14 16 14 12 9 2 6 4 0 2 3 3 11 22 16 17 23 22 10 4 7 7 5 13 17 12 11 8 8 4 6 5 4 5 10 7 4 2 2 3 5 7 6 8 13 17
Wind_Direction
354 352 351 349 348 346 345 343 342 341 336 335 334 332 330 329 328 327 325 323 322 321 321 321 322 323 324 325 326 326 325 317 311 293 230 237 232 227 213 170 163 184 174 176 205 174 193 205 210 222 211 213 212 225 216 208 228 204 215 160 279 248 289 261 289 321 134 120 152 167 123 106 91 116 117 134 142 131 156 139 127 131 131 132 136 137 141 139
354 352 350 349 347 345 342 340 338 336 334 332 331 328 328 328 326 324 321 321 321 320 320 320 321 321 324 326 327 326 326 291 278 265 239 249 213 222 206 172 165 174 165 196 204 191 188 200 208 209 218 217 203 234 199 208 195 203 205 196 246 271 252 294 277 302 176 129 177 130 133 147 140 162 152 147 138 146 147 126 137 121 122 128 133 140 142 141
352 351 349 348 346 340 338 337 334 333 333 331 327 327 326 324 323 320 319 319 319 318 317 319 320 321 324 326 325 324 325 300 272 257 260 252 224 216 209 187 170 168 172 186 212 200 198 195 200 203 211 240 211 240 211 224 188 201 191 211 234 234 246 231 241 273 42 148 116 139 161 123 136 155 173 138 147 152 136 119 117 129 133 140 139 146 146 150
351 350 348 346 340 338 336 334 333 332 330 327 325 325 324 323 320 318 317 317 315 315 317 317 318 322 323 324 325 319 290 268 267 250 280 293 193 199 185 176 174 175 188 208 207 216 204 204 206 206 202 219 238 238 237 211 207 171 210 205 237 242 239 237 257 264 157 213 126 199 129 123 174 148 168 140 151 152 131 136 142 144 144 143 148 147 152 149
350 348 345 342 339 337 335 333 331 330 327 325 324 322 322 319 317 316 316 313 313 313 314 315 319 322 322 318 318 317 301 325 287 75 287 118 131 152 170 177 173 179 192 206 238 237 218 209 203 202 220 227 229 235 235 231 213 212 193 199 227 239 247 264 275 274 270 106 165 59 143 152 131 162 152 159 163 169 147 142 142 145 147 149 152 152 152 152
349 346 343 341 338 336 334 332 330 327 326 323 322 321 317 316 316 314 314 312 310 310 310 314 318 323 320 314 302 288 286 315 34 53 159 140 150 163 170 172 176 177 189 216 222 235 231 216 207 200 206 234 232 228 219 237 186 235 194 199 225 187 130 279 254 263 229 148 147 151 215 124 167 184 165 173 180 161 141 145 146 147 150 152 150 155 156 156
347 345 340 339 337 335 333 331 329 327 323 323 321 317 315 314 312 312 310 309 308 306 309 313 317 323 320 305 264 224 235 251 292 219 163 160 163 157 158 159 154 171 185 200 223 227 233 223 213 209 203 217 237 252 265 228 218 228 242 188 205 160 167 192 258 227 205 151 149 204 147 157 187 163 177 175 198 133 132 140 142 143 147 151 154 162 159 159
344 341 339 338 337 335 331 330 327 325 323 320 317 315 314 312 311 309 308 308 305 305 307 311 317 321 326 323 210 236 204 254 242 241 194 159 141 143 133 143 166 168 182 203 203 219 235 231 208 217 238 221 216 237 246 255 233 219 237 227 196 174 178 185 229 241 222 149 140 141 155 205 188 161 328 104 107 121 131 134 141 146 147 157 159 161 161 162
343 340 339 337 335 333 331 328 326 324 321 318 316 314 311 311 309 308 305 304 305 303 305 310 316 313 313 295 270 287 257 234 246 205 161 161 166 149 159 150 193 167 192 207 216 224 224 238 226 208 222 233 251 250 236 242 246 235 224 231 192 197 185 161 205 245 180 186 173 134 178 162 104 120 187 124 122 127 134 136 142 147 150 157 165 167 160 163
343 341 338 337 335 333 330 328 325 323 320 319 317 314 311 307 305 303 304 304 302 301 303 307 309 311 297 253 263 245 250 264 198 163 162 163 144 147 204 181 170 189 184 203 215 228 227 229 226 212 243 255 235 232 264 262 268 258 237 212 224 200 191 174 203 222 170 218 158 151 176 144 157 155 243 130 125 126 128 138 144 150 156 160 166 168 164 164
342 340 338 336 334 331 328 326 323 322 320 319 316 312 310 308 305 304 303 301 299 298 301 303 299 285 251 223 225 245 262 302 148 148 169 160 150 163 200 217 172 187 205 199 219 222 239 254 245 234 229 244 257 272 262 261 279 279 275 268 229 210 178 172 185 226 169 190 165 159 164 157 141 192 196 137 133 133 136 144 151 151 158 162 167 166 170 173
341 340 336 334 332 329 327 323 322 320 320 317 313 312 309 308 306 304 301 298 296 292 296 296 291 263 265 260 224 228 278 319 50 182 199 173 166 182 191 214 171 198 199 214 213 229 236 249 257 256 244 157 255 299 275 275 271 284 305 305 319 303 263 187 194 202 175 192 162 162 146 165 140 208 159 133 138 138 140 145 153 155 156 164 170 164 169 180
339 337 335 333 331 329 324 323 321 320 316 314 311 308 307 306 305 303 300 298 288 286 285 281 269 240 268 256 233 239 265 277 284 273 244 200 191 181 192 206 189 194 206 224 218 216 234 240 252 264 261 268 243 219 321 283 280 287 284 296 298 277 273 187 200 194 193 186 162 152 172 185 150 200 145 142 143 141 139 151 154 156 159 164 167 167 167 186
337 336 334 332 330 327 325 322 321 319 315 312 310 306 304 302 300 298 298 286 282 282 275 258 225 249 232 247 285 247 236 238 254 261 263 254 205 181 187 213 220 193 201 221 237 228 218 228 246 254 274 257 258 306 283 289 294 273 277 278 240 281 262 221 201 194 203 165 165 149 147 194 153 200 147 156 146 145 145 154 157 156 160 165 167 165 173 191
336 336 335 332 330 326 325 322 321 318 315 314 311 307 303 300 296 294 292 286 274 261 253 214 224 222 217 265 249 250 243 246 256 255 246 250 241 190 190 195 227 242 205 205 222 240 259 237 224 238 241 254 272 284 288 294 302 298 287 271 279 251 274 277 219 205 195 156 148 147 106 183 169 180 147 157 147 149 150 155 160 159 160 168 162 165 173 189
336 334 333 331 327 326 323 324 321 319 318 316 315 309 303 297 289 286 282 273 272 248 194 198 202 215 305 290 262 282 238 193 230 234 239 252 243 210 180 197 199 216 242 250 238 253 242 266 233 209 237 238 243 235 269 301 286 271 255 253 254 211 241 265 242 205 186 162 140 146 173 144 169 233 160 158 161 151 153 158 159 164 161 167 162 168 172 183
335 333 331 328 326 325 324 322 321 319 319 318 317 310 303 290 279 272 266 245 229 196 198 210 143 182 275 237 351 328 255 208 212 199 221 225 246 228 178 194 204 208 202 230 225 221 240 238 219 244 219 222 204 208 216 241 261 268 240 250 254 240 214 241 233 172 182 161 153 149 127 165 154 182 169 160 164 158 160 157 162 162 164 165 166 169 171 182
333 330 328 325 324 325 324 322 321 320 320 318 317 306 299 293 291 310 168 176 215 201 224 256 281 251 260 243 272 245 242 259 187 208 200 202 218 233 213 202 208 210 195 209 219 224 204 233 205 232 207 213 205 201 201 210 211 236 237 240 244 255 253 250 231 161 200 151 153 156 141 165 158 176 203 169 164 172 164 160 164 165 164 166 170 171 173 181
330 329 327 324 323 324 324 322 321 321 322 318 310 301 279 291 46 193 147 152 154 126 218 187 185 155 240 151 217 255 256 241 213 188 200 202 185 222 201 223 216 192 200 195 187 212 174 239 211 234 228 201 208 212 207 210 213 230 240 238 229 230 235 251 239 179 179 158 157 158 169 170 176 179 189 167 164 172 170 161 164 166 166 168 172 170 174 181
330 328 328 326 324 324 324 322 320 319 327 326 339 336 327 319 322 93 214 193 232 247 280 282 203 239 283 292 288 271 262 211 243 176 205 184 161 204 219 205 217 198 200 194 188 195 171 201 215 217 219 221 210 216 224 217 230 244 244 250 244 227 236 247 239 178 175 158 175 161 165 182 183 173 178 166 164 173 167 166 170 165 167 172 174 172 175 179
331 331 330 327 325 324 324 323 319 317 322 313 302 313 352 350 358 333 325 272 249 245 246 257 242 236 247 272 275 283 310 252 206 162 220 149 194 167 209 215 210 197 206 192 213 166 209 218 219 221 216 229 229 210 221 236 227 234 250 255 262 256 244 234 253 159 167 173 181 167 166 188 174 166 169 164 167 176 172 171 174 169 168 172 175 173 176 182
333 333 329 328 327 325 324 324 319 315 320 282 268 290 287 330 84 313 333 298 261 246 259 253 254 254 242 246 259 268 287 282 252 190 187 158 184 186 153 209 206 214 178 215 209 197 202 222 218 217 220 218 238 227 212 225 233 230 240 251 266 265 276 286 257 169 170 172 172 166 172 180 171 169 178 170 173 178 175 173 176 175 167 173 175 176 173 174
333 331 331 329 328 325 325 321 319 315 308 303 301 298 290 298 347 350 329 280 281 239 237 239 244 248 245 238 246 249 249 255 244 215 193 172 177 202 159 187 208 215 199 203 213 210 216 217 217 215 216 223 221 236 227 216 228 238 232 246 245 260 269 274 281 202 173 172 154 169 172 183 171 169 183 184 178 179 180 175 177 175 172 172 177 178 172 176
331 330 329 331 328 326 324 321 313 299 333 312 287 266 273 336 344 360 324 286 292 279 215 226 213 225 229 209 214 222 228 243 237 232 188 178 208 175 227 184 196 207 219 203 215 226 227 178 194 225 224 219 227 220 233 220 215 222 238 238 242 246 245 256 262 278 183 191 152 156 174 184 171 172 176 184 188 180 179 179 178 178 179 175 176 177 172 174
328 327 330 329 331 327 325 316 324 0 321 317 304 351 356 341 343 5 328 289 235 266 190 239 208 221 223 206 192 194 216 238 241 238 199 183 192 185 209 213 210 209 216 218 212 225 237 232 189 203 219 222 222 226 219 227 230 225 223 235 245 245 251 255 269 266 129 152 180 116 155 239 195 177 178 180 185 195 185 181 181 182 178 174 175 178 180 177
327 327 328 329 330 337 320 313 36 349 325 284 359 343 345 331 342 340 316 287 284 280 148 227 150 240 156 193 186 203 186 234 221 225 235 188 194 210 175 222 202 217 203 221 223 222 225 225 239 206 204 214 221 225 217 211 235 231 219 217 239 252 261 264 255 260 149 165 210 179 167 253 209 181 179 178 186 196 190 188 192 177 178 178 176 180 181 181
325 324 326 328 330 344 351 322 340 326 332 331 345 334 331 324 330 324 321 231 277 212 195 126 168 354 175 171 170 156 184 235 187 213 229 191 196 181 231 202 197 238 217 199 221 227 200 209 224 240 213 208 214 220 216 212 218 236 230 213 217 236 250 257 264 267 230 209 176 189 178 154 212 213 185 176 184 189 194 202 204 182 178 180 179 179 181 182
322 321 323 325 325 337 272 284 313 307 266 274 312 319 308 309 322 292 164 335 277 143 131 171 246 72 262 149 169 181 196 102 164 200 212 193 189 173 221 209 206 208 217 209 224 199 216 208 212 224 233 216 211 207 208 220 221 223 232 241 216 217 234 247 257 263 256 187 228 206 174 161 192 239 196 167 180 189 196 197 202 191 183 181 181 175 180 184
319 320 319 322 323 310 284 214 274 271 256 304 309 299 310 313 304 335 281 255 304 314 5 168 320 181 188 155 180 202 224 193 195 172 189 205 200 200 194 226 229 215 213 227 242 222 211 236 206 218 230 230 215 195 207 209 226 226 235 239 251 229 222 231 237 246 257 256 240 200 172 186 222 199 189 189 180 184 194 197 195 191 192 183 184 180 175 183
319 316 317 319 324 311 313 289 253 256 276 290 295 315 313 306 270 219 203 258 223 248 180 65 202 188 184 166 191 195 214 226 249 143 176 194 192 213 224 193 232 246 234 215 234 243 253 205 231 216 217 230 219 209 199 208 220 223 219 242 248 256 248 224 229 224 265 245 234 199 186 178 217 201 182 178 197 189 181 190 196 194 190 194 187 187 181 178
318 316 310 316 300 303 310 285 263 252 273 317 318 314 303 268 230 202 229 236 308 253 110 130 190 162 185 185 190 192 210 219 221 201 179 189 189 195 205 194 209 246 249 257 226 226 239 256 239 224 223 207 231 231 200 204 212 211 217 212 250 262 271 265 256 209 223 247 224 205 212 191 213 229 195 191 179 185 177 185 190 191 198 193 189 188 188 181
318 316 309 307 272 266 240 250 275 335 329 313 316 307 311 249 220 214 222 116 252 186 195 196 201 181 191 199 202 177 195 207 228 212 191 184 192 186 198 212 170 200 228 218 237 224 228 228 241 259 213 226 201 233 214 195 205 219 210 205 200 231 211 252 237 231 224 223 214 221 244 240 217 197 187 185 175 183 188 186 185 187 189 189 188 189 184 183
318 316 310 295 265 222 228 239 275 283 304 295 291 299 248 211 241 202 260 273 236 353 88 219 196 197 195 202 212 194 190 208 200 234 200 181 207 202 199 211 182 197 206 209 237 225 235 226 230 234 257 207 227 204 191 211 196 208 215 196 192 205 214 231 241 247 256 256 216 234 223 247 249 239 181 185 187 181 185 188 185 188 188 190 189 187 186 181
318 315 309 275 251 248 251 240 242 250 270 288 280 259 240 233 247 141 218 227 274 310 313 302 323 282 209 205 206 201 192 208 193 215 216 183 197 202 199 204 216 192 227 192 217 211 236 216 215 214 221 195 212 221 180 209 182 207 204 208 200 192 199 214 203 206 221 220 223 216 231 202 194 222 183 186 185 191 190 189 185 184 192 189 189 189 189 189
317 304 280 286 273 250 233 228 239 232 242 271 254 232 210 229 328 234 216 213 230 273 280 290 291 289 259 221 202 205 217 188 205 208 216 202 193 210 189 196 203 226 185 234 200 215 228 243 202 208 233 199 208 200 211 210 240 204 202 202 222 222 176 216 177 218 248 244 236 220 222 157 198 203 185 187 186 186 188 188 191 196 186 185 188 190 191 189
314 309 306 274 277 261 245 230 213 211 222 232 237 221 227 184 209 184 274 300 267 278 330 322 295 263 269 266 198 215 193 244 182 215 214 208 202 204 203 189 199 202 208 207 177 220 208 227 210 194 212 231 212 177 201 209 220 186 195 218 223 189 220 254 278 251 253 257 243 208 267 251 313 262 192 180 177 185 183 190 192 197 199 182 186 186 187 184
320 315 314 303 284 265 258 259 212 186 208 233 229 242 254 266 265 296 308 303 311 323 313 308 296 297 244 244 252 201 195 202 208 194 217 191 211 211 199 211 189 197 218 205 218 241 196 223 204 216 201 215 226 193 196 208 218 136 210 227 339 230 273 205 203 216 244 213 241 212 227 249 201 252 245 195 188 183 185 188 187 194 187 178 180 180 180 181
312 296 281 274 263 268 251 234 217 187 212 224 239 251 303 275 254 263 292 298 305 330 331 306 303 306 287 274 243 241 185 203 191 207 221 192 241 184 208 210 197 201 202 216 244 202 227 279 216 213 213 199 213 216 212 214 205 226 218 119 208 174 234 212 212 224 205 233 252 235 240 236 177 237 182 213 183 186 193 195 194 192 175 170 171 176 178 178
287 287 296 279 324 353 297 201 207 178 214 237 246 275 248 258 276 286 290 294 293 294 291 282 281 288 303 303 308 276 239 210 194 213 218 189 227 173 205 196 202 202 193 203 221 238 195 232 263 245 215 180 197 197 218 192 198 222 247 259 203 213 197 212 207 246 164 240 215 247 238 233 208 199 200 197 179 176 190 190 196 188 171 163 166 173 175 181
326 330 280 274 348 2 346 318 220 215 234 243 253 250 289 285 280 266 263 269 280 275 269 289 275 280 284 289 287 289 292 271 205 214 222 160 217 171 206 187 212 195 197 194 213 207 245 206 261 249 242 176 202 190 198 172 183 195 210 232 232 245 139 187 199 217 195 195 187 199 243 233 256 208 213 211 199 192 180 182 186 186 173 170 172 175 184 188
322 293 279 284 354 356 336 334 251 227 239 250 254 270 276 278 288 280 285 284 281 270 276 275 277 268 288 304 295 305 311 306 288 226 208 215 202 205 193 199 191 213 193 199 204 195 219 216 235 274 264 233 214 180 186 182 186 195 199 217 227 214 239 199 227 198 217 210 205 212 240 273 255 224 227 234 205 199 196 183 186 180 176 177 178 179 183 189
309 284 264 306 323 339 332 309 283 249 249 249 252 251 258 256 257 261 263 268 271 274 285 284 283 283 277 266 276 287 282 283 288 293 216 225 201 223 173 197 185 198 208 201 204 190 208 197 222 237 249 250 242 186 185 182 186 196 192 214 223 217 214 221 219 258 205 225 221 227 275 254 254 241 212 229 214 204 198 177 179 184 179 182 190 184 179 181
292 275 290 296 297 307 298 278 268 270 255 249 254 250 255 256 262 274 288 291 287 284 282 270 267 278 272 277 281 276 275 275 277 275 301 281 239 207 212 214 192 192 202 222 198 193 184 210 203 240 271 271 265 250 184 183 184 198 203 201 209 221 217 234 220 191 216 183 203 203 231 239 196 259 235 240 242 209 172 170 181 187 187 182 184 177 184 186
300 300 299 283 280 275 277 260 268 257 257 263 265 273 271 279 290 294 278 277 272 271 268 276 284 262 274 275 278 279 280 281 272 278 276 286 292 324 228 214 223 213 190 191 226 159 204 192 206 164 232 266 283 275 224 183 185 197 199 192 201 220 214 228 251 157 220 213 207 166 241 243 218 230 281 275 279 269 194 186 173 180 186 188 195 185 175 181
298 274 256 281 297 265 253 247 255 265 273 280 283 279 277 258 249 255 265 274 293 289 294 288 292 296 277 289 287 282 269 256 289 281 275 283 292 294 312 254 213 235 216 182 205 157 203 170 184 203 198 204 214 217 203 190 191 183 204 192 192 205 217 209 228 226 226 248 213 224 247 234 232 198 228 254 263 301 336 177 194 177 186 191 190 193 162 177
308 307 308 311 297 314 290 271 257 261 265 283 296 291 291 302 317 322 332 314 299 306 304 314 349 3 353 359 356 344 330 328 290 278 262 285 286 291 330 327 321 280 257 231 194 180 207 180 188 201 204 208 226 258 226 233 173 200 189 204 202 196 207 217 208 221 222 209 217 235 216 251 246 197 196 240 255 238 257 234 166 200 179 190 194 164 161 177
291 272 306 317 323 312 306 329 328 359 347 332 294 319 308 314 316 309 318 301 312 321 327 330 340 355 349 1 351 323 330 342 347 355 336 327 324 330 330 337 328 311 302 282 198 213 190 202 196 196 205 212 200 222 240 237 231 198 188 194 206 214 202 209 208 226 216 191 274 245 228 228 233 251 255 241 246 237 223 231 190 154 131 146 177 175 163 179
263 269 283 328 302 304 312 313 330 324 317 319 296 294 285 293 300 300 310 290 310 329 337 327 340 0 355 352 339 330 332 330 350 349 336 353 338 345 333 331 328 338 339 303 190 201 158 197 199 195 206 210 221 239 232 238 243 219 193 188 196 205 227 221 219 224 187 209 235 242 226 241 248 240 242 212 217 230 225 200 208 184 147 124 125 142 167 175
274 288 288 299 294 306 300 304 306 305 305 306 301 301 292 283 284 285 293 307 301 291 298 290 301 345 344 340 344 324 344 344 340 339 348 331 328 330 332 328 333 9 348 332 284 197 142 186 185 201 199 204 221 228 240 251 257 257 206 194 198 200 208 224 237 222 213 215 222 235 215 226 226 243 262 216 205 196 145 4 358 167 113 119 123 123 134 170
280 289 295 324 289 286 290 300 302 303 297 307 304 298 299 305 295 288 273 268 292 298 328 292 297 323 333 317 301 306 316 316 324 321 322 323 308 350 312 257 309 329 344 312 310 265 192 216 187 210 229 203 199 214 241 244 247 262 259 218 204 207 205 207 222 240 246 244 237 227 228 245 234 199 256 279 235 245 98 82 94 333 126 143 141 144 144 135
262 277 328 316 302 298 303 310 297 300 295 296 292 308 323 327 318 315 300 299 284 289 313 329 333 323 319 315 319 314 317 315 313 307 308 310 294 301 297 300 328 309 317 316 313 318 233 184 119 109 205 234 218 207 211 237 251 250 258 254 222 205 216 197 205 204 227 234 240 241 234 243 268 237 209 272 272 163 265 178 243 196 100 193 152 155 151 157
260 250 191 220 281 294 301 285 277 274 268 277 316 321 310 321 312 310 306 298 312 324 332 313 308 317 314 310 312 310 316 308 300 298 298 298 289 281 268 274 282 286 289 289 288 291 280 195 169 139 170 278 216 246 235 218 228 237 235 240 250 279 207 208 213 196 203 213 232 233 236 220 214 198 224 236 264 269 193 230 233 246 187 173 210 182 170 170